GSAT0218 (GALILEO 22) (43058 NORAD) Tracking and Keplerian Element Data

This shows tracking and keplerian element data for the satellite.

Feedback or suggestion? Click here.




ElementValue
Catalog43058
NameGSAT0218 (GALILEO 22)
Epoch Orbit4252
Epoch Day283.83601456
Epoch Year2024
RAAN238.4378
Inclination55.2942
Eccentricity0.0004705
Argument of Perigee280.1241
Mean Anonmoly79.8063
Mean Motion1.70473874
Decay Rate2.6E-07
L11 43058U 17079D 24283.83601456 .00000026 00000+0 00000+0 0 9992
L22 43058 55.2942 238.4378 0004705 280.1241 79.8063 1.70473874 42525



Live tracking and technical data element details for GSAT0218 (GALILEO 22) (NORAD 43058). GSAT0218 (GALILEO 22) can be tracked NOW for your location showing map with azimuth and elevation plus other details from your city location.







IsCatalogInMostPopularTable: catalog: 43058, numindb: 859
Update: records affected: 1



GetName: 43058 GSAT0218 (GALILEO 22)

Hit Count: updated at: Mon, 13 Jan 2025 19:14:27 GMT